User: anonymous   Login
Location: Namasale
(1.5000°N, 32.6167°E)
Time: 09:38:24
(UTC+00:00)
Language:

Cosmos 2084 Rocket - Orbit

View from above orbital plane
View from above orbital plane
View from above satellite
View from above satellite

Ground track
Ground track

The orbit data is extracted from the following two-line orbital elements,

1 20666U 90055D   21167.73813164 -.00000008  00000-0  17539-4 0  9997
2 20666  62.7854 307.2373 0098238  34.8672 325.8804 14.92505224679667
Epoch (UTC): 16 June 2021 17:42:54
Eccentricity: 0.0098238
inclination: 62.7854°
perigee height: 521 km
apogee height: 658 km
right ascension of ascending node: 307.2373°
argument of perigee: 34.8672°
revolutions per day: 14.92505224
mean anomaly at epoch: 325.8804°
orbit number at epoch: 67966

The dashed part of the orbit path shows where the satellite is in the earth's shadow,  

DLR